When you browse on this site, cookies collect data to enhance your experience and personalize the content and advertising you see.
Visit our Privacy Policy to learn more. By continuing to use the site, you agree to this use of cookies and data.
  • In Hungary
  • List of Countries
  • For 7 days
  • Water Temperature
  • Weather Map
  • News
  • Weather Widgets
  • user-avatar
    Login

    Hourly Weather Hatale

    Today, 15 September, Sunday

    Time Temperature Precipitation Wind Pressure Humidity
    00:00 +7°C° 0 mm 1 mps 695 mmHg 76%
    01:00 +6°C° 0 mm 1 mps 695 mmHg 77%
    02:00 +6°C° 0 mm 1 mps 695 mmHg 78%
    03:00 +6°C° 0 mm 1 mps 694 mmHg 79%
    04:00 +5°C° 0 mm 1 mps 694 mmHg 80%
    05:00 +6°C° 0 mm 1 mps 694 mmHg 77%
    06:00 +7°C° 0 mm 1 mps 694 mmHg 74%
    07:00 +8°C° 0 mm 1 mps 694 mmHg 71%
    08:00 +10°C° 0 mm 2 mps 694 mmHg 63%
    09:00 +13°C° 0 mm 2 mps 694 mmHg 56%
    10:00 +14°C° 0 mm 3 mps 694 mmHg 48%
    11:00 +16°C° 0 mm 3 mps 694 mmHg 47%
    12:00 +17°C° 0 mm 3 mps 694 mmHg 45%
    13:00 +18°C° 0 mm 4 mps 693 mmHg 43%
    14:00 +18°C° 0 mm 4 mps 693 mmHg 48%
    15:00 +18°C° 0 mm 4 mps 692 mmHg 53%
    16:00 +17°C° 0 mm 3 mps 692 mmHg 58%
    17:00 +16°C° 0 mm 3 mps 691 mmHg 64%
    18:00 +13°C° 0 mm 3 mps 691 mmHg 70%
    19:00 +11°C° 0 mm 3 mps 690 mmHg 76%
    20:00 +10°C° 0 mm 3 mps 690 mmHg 78%
    21:00 +10°C° 0 mm 3 mps 690 mmHg 79%
    22:00 +10°C° 0 mm 3 mps 689 mmHg 80%
    23:00 +10°C° 0 mm 3 mps 689 mmHg 81%

    Tomorrow, 16 September, Monday

    Time Temperature Precipitation Wind Pressure Humidity
    00:00 +10°C° 0 mm 3 mps 689 mmHg 81%
    01:00 +10°C° 0 mm 2 mps 689 mmHg 81%
    02:00 +9°C° 0 mm 2 mps 689 mmHg 83%
    03:00 +9°C° 0 mm 2 mps 689 mmHg 84%
    04:00 +9°C° 0 mm 2 mps 688 mmHg 86%
    05:00 +10°C° 0 mm 2 mps 688 mmHg 84%
    06:00 +10°C° 0 mm 2 mps 688 mmHg 82%
    07:00 +12°C° 0 mm 2 mps 688 mmHg 81%
    08:00 +14°C° 0 mm 2 mps 689 mmHg 74%
    09:00 +16°C° 0 mm 2 mps 689 mmHg 67%
    10:00 +17°C° 0 mm 2 mps 689 mmHg 61%
    11:00 +18°C° 0 mm 3 mps 689 mmHg 58%
    12:00 +18°C° 0 mm 3 mps 689 mmHg 54%
    13:00 +19°C° 0 mm 4 mps 689 mmHg 51%
    14:00 +18°C° 0 mm 3 mps 688 mmHg 55%
    15:00 +17°C° 0 mm 3 mps 688 mmHg 59%
    16:00 +17°C° 0 mm 2 mps 687 mmHg 63%
    17:00 +15°C° 0 mm 2 mps 687 mmHg 66%
    18:00 +14°C° 0 mm 1 mps 686 mmHg 70%
    19:00 +13°C° 0 mm 1 mps 686 mmHg 74%
    20:00 +13°C° 0.1 mm 1 mps 686 mmHg 77%
    21:00 +12°C° 0.1 mm 2 mps 686 mmHg 80%
    22:00 +12°C° 0.1 mm 2 mps 686 mmHg 83%
    23:00 +12°C° 0.2 mm 2 mps 685 mmHg 86%

    Day after tomorrow, 17 September, Tuesday

    Time Temperature Precipitation Wind Pressure Humidity
    00:00 +10°C° 0.2 mm 2 mps 685 mmHg 89%
    01:00 +10°C° 0.2 mm 2 mps 685 mmHg 92%
    02:00 +10°C° 0.2 mm 2 mps 685 mmHg 92%
    03:00 +9°C° 0.2 mm 2 mps 685 mmHg 92%
    04:00 +9°C° 0.2 mm 2 mps 685 mmHg 92%
    05:00 +9°C° 0.3 mm 2 mps 685 mmHg 92%
    06:00 +8°C° 0.3 mm 2 mps 685 mmHg 91%
    07:00 +8°C° 0.3 mm 2 mps 685 mmHg 90%
    08:00 +8°C° 0.1 mm 2 mps 685 mmHg 86%
    09:00 +8°C° 0.1 mm 2 mps 686 mmHg 82%
    10:00 +8°C° 0.1 mm 3 mps 686 mmHg 78%
    11:00 +9°C° 0 mm 3 mps 685 mmHg 74%
    12:00 +8°C° 0 mm 4 mps 685 mmHg 70%
    13:00 +10°C° 0 mm 4 mps 685 mmHg 65%
    14:00 +10°C° 0 mm 4 mps 685 mmHg 66%
    15:00 +10°C° 0 mm 4 mps 684 mmHg 66%
    16:00 +10°C° 0 mm 4 mps 684 mmHg 66%
    17:00 +8°C° 0 mm 4 mps 684 mmHg 67%
    18:00 +7°C° 0 mm 4 mps 684 mmHg 69%
    19:00 +6°C° 0 mm 4 mps 684 mmHg 70%
    20:00 +5°C° 0.1 mm 4 mps 684 mmHg 74%
    21:00 +5°C° 0.1 mm 4 mps 685 mmHg 78%
    22:00 +4°C° 0.1 mm 4 mps 685 mmHg 82%
    23:00 +4°C° 0.1 mm 4 mps 685 mmHg 83%

    18 September, Wednesday

    Time Temperature Precipitation Wind Pressure Humidity
    00:00 +3°C° 0.1 mm 4 mps 685 mmHg 84%
    01:00 +3°C° 0.1 mm 4 mps 685 mmHg 85%
    02:00 +1°C° 0 mm 4 mps 685 mmHg 86%
    03:00 +2°C° 0 mm 3 mps 685 mmHg 86%
    04:00 +2°C° 0 mm 3 mps 685 mmHg 87%
    05:00 +2°C° 0 mm 3 mps 686 mmHg 86%
    06:00 +1°C° 0 mm 4 mps 686 mmHg 84%
    07:00 +1°C° 0 mm 4 mps 687 mmHg 83%
    08:00 +3°C° 0 mm 4 mps 687 mmHg 80%
    09:00 +4°C° 0 mm 4 mps 688 mmHg 77%
    10:00 +4°C° 0 mm 3 mps 688 mmHg 74%
    11:00 +5°C° 0.1 mm 3 mps 688 mmHg 70%
    12:00 +7°C° 0.1 mm 3 mps 688 mmHg 66%
    13:00 +7°C° 0.1 mm 4 mps 688 mmHg 62%
    14:00 +8°C° 0 mm 3 mps 688 mmHg 59%
    15:00 +8°C° 0 mm 3 mps 688 mmHg 57%
    16:00 +9°C° 0 mm 3 mps 688 mmHg 54%
    17:00 +7°C° 0 mm 3 mps 688 mmHg 61%
    18:00 +5°C° 0 mm 2 mps 688 mmHg 68%
    19:00 +4°C° 0 mm 2 mps 688 mmHg 75%
    20:00 +3°C° 0 mm 2 mps 688 mmHg 76%
    21:00 +3°C° 0 mm 2 mps 688 mmHg 77%
    22:00 +2°C° 0 mm 2 mps 688 mmHg 77%
    23:00 +2°C° 0 mm 2 mps 688 mmHg 79%

    19 September, Thursday

    Time Temperature Precipitation Wind Pressure Humidity
    00:00 +2°C° 0 mm 2 mps 688 mmHg 80%
    01:00 +2°C° 0 mm 2 mps 688 mmHg 81%
    02:00 +1°C° 0 mm 2 mps 688 mmHg 82%
    03:00 +1°C° 0 mm 2 mps 688 mmHg 83%
    04:00 +1°C° 0 mm 2 mps 688 mmHg 85%
    05:00 +2°C° 0 mm 2 mps 688 mmHg 82%
    06:00 +3°C° 0 mm 2 mps 689 mmHg 79%
    07:00 +3°C° 0 mm 2 mps 689 mmHg 76%
    08:00 +4°C° 0.2 mm 2 mps 689 mmHg 76%
    09:00 +5°C° 0.2 mm 2 mps 690 mmHg 75%
    10:00 +5°C° 0.2 mm 3 mps 690 mmHg 74%
    11:00 +5°C° 0.2 mm 3 mps 690 mmHg 73%
    12:00 +5°C° 0.2 mm 3 mps 690 mmHg 72%
    13:00 +7°C° 0.2 mm 2 mps 690 mmHg 71%
    14:00 +7°C° 0 mm 2 mps 690 mmHg 69%
    15:00 +7°C° 0 mm 2 mps 690 mmHg 66%
    16:00 +7°C° 0 mm 2 mps 690 mmHg 64%
    17:00 +6°C° 0.1 mm 2 mps 690 mmHg 72%
    18:00 +4°C° 0.1 mm 2 mps 690 mmHg 79%
    19:00 +4°C° 0.1 mm 1 mps 690 mmHg 86%
    20:00 +3°C° 0.1 mm 1 mps 690 mmHg 88%
    21:00 +3°C° 0.1 mm 1 mps 690 mmHg 90%
    22:00 +3°C° 0.1 mm 1 mps 691 mmHg 92%
    23:00 +3°C° 0.2 mm 1 mps 691 mmHg 92%

    20 September, Friday

    Time Temperature Precipitation Wind Pressure Humidity
    00:00 +2°C° 0.2 mm 2 mps 691 mmHg 92%
    01:00 +2°C° 0.2 mm 2 mps 691 mmHg 93%
    02:00 +2°C° 0.3 mm 1 mps 692 mmHg 93%
    03:00 +2°C° 0.3 mm 1 mps 692 mmHg 93%
    04:00 +1°C° 0.3 mm 1 mps 692 mmHg 93%
    05:00 +2°C° 0 mm 1 mps 692 mmHg 91%
    06:00 +1°C° 0 mm 2 mps 692 mmHg 89%
    07:00 +1°C° 0 mm 2 mps 693 mmHg 86%
    08:00 +2°C° 0 mm 2 mps 693 mmHg 83%
    09:00 +3°C° 0 mm 2 mps 694 mmHg 79%
    10:00 +3°C° 0 mm 3 mps 694 mmHg 76%
    11:00 +4°C° 0.3 mm 3 mps 694 mmHg 73%
    12:00 +5°C° 0.3 mm 3 mps 694 mmHg 69%
    13:00 +7°C° 0.3 mm 3 mps 694 mmHg 66%
    14:00 +7°C° 0.2 mm 3 mps 694 mmHg 66%
    15:00 +7°C° 0.2 mm 3 mps 694 mmHg 65%
    16:00 +7°C° 0.2 mm 3 mps 694 mmHg 65%
    17:00 +5°C° 0 mm 2 mps 694 mmHg 68%
    18:00 +3°C° 0 mm 2 mps 694 mmHg 72%
    19:00 +3°C° 0 mm 1 mps 693 mmHg 76%
    20:00 +2°C° 0 mm 1 mps 693 mmHg 77%
    21:00 +2°C° 0 mm 1 mps 693 mmHg 78%
    22:00 +2°C° 0 mm 1 mps 694 mmHg 79%
    23:00 +1°C° 0 mm 1 mps 693 mmHg 79%
    Show more